Location: Albany
(35.0170°S, 117.8920°E)
Time: 17:12:17
(UTC+08:00)

deb Explorer IX - Visible Passes

Search period start: 24 January 2021 00:00
Search period end: 03 February 2021 00:00
Orbit: 536 x 1104 km, 38.8° (Epoch: 23 January)

Date Brightness Start Highest point End Pass type
(mag) Time Alt. Az. Time Alt. Az. Time Alt. Az.
25 Jan ? 04:33:24 10° NW 04:37:30 39° NNE 04:42:17 10° E visible
26 Jan ? 04:11:04 18° NNW 04:13:55 38° NNE 04:18:30 10° E visible
27 Jan ? 03:48:43 27° NNW 03:50:19 37° NNE 03:54:45 10° E visible
28 Jan ? 03:26:19 36° NNE 03:26:43 36° NNE 03:31:01 10° E visible
29 Jan ? 03:03:54 33° NE 03:03:54 33° NE 03:07:17 10° E visible
29 Jan ? 04:45:22 10° W 04:49:43 71° SSW 04:54:44 10° ESE visible
30 Jan ? 02:41:26 24° ENE 02:41:26 24° ENE 02:43:35 10° E visible
30 Jan ? 04:22:41 16° W 04:26:07 70° SSW 04:30:57 10° ESE visible
31 Jan ? 02:18:59 15° E 02:18:59 15° E 02:19:55 10° E visible
31 Jan ? 04:00:13 26° W 04:02:31 69° SSW 04:07:12 10° ESE visible
01 Feb ? 03:37:45 44° W 03:38:57 68° SSW 03:43:29 10° ESE visible
02 Feb ? 03:15:17 68° SSW 03:15:21 68° SSW 03:19:46 10° ESE visible
02 Feb ? 04:58:10 10° WSW 05:02:24 53° S 05:07:12 10° E visible
